Regional Weather Roundup
Issued by NWS Little Rock, AR

Home | Current Version | Previous Version | Text Only | Print | Product List | Glossary On
Versions: 1 2 3 4 5 6 7 8 9 10 11 12 13 14 15 16 17 18 19 20 21 22 23 24 25 26 27 28 29 30 31 32 33 34 35 36 37 38 39 40 41 42 43 44 45 46 47 48 49
000
ASUS44 KLZK 032105
RWRLZK

WEATHER ROUNDUP FOR ARKANSAS
NATIONAL WEATHER SERVICE LITTLE ROCK AR
400 PM CDT MON AUG 03 2015

NOTE: "FAIR" INDICATES FEW OR NO CLOUDS BELOW 12,000 FEET WITH NO
SIGNIFICANT WEATHER AND/OR OBSTRUCTIONS TO VISIBILITY.

ARZ001-003-010-029-032200-
NORTHWEST ARKANSAS

CITY           SKY/WX    TMP DP  RH WIND       PRES   REMARKS
FAYETTEVILLE   PTSUNNY   89  68  49 W5        29.98F HX  93
FORT SMITH     CLOUDY    92  63  38 N7        29.92F HX  93
HARRISON       MOSUNNY   91  65  41 W7        29.98F HX  93
BENTONVILLE    PTSUNNY   91  63  38 W8        29.99F HX  92
ROGERS         PTSUNNY   92  66  42 SW9       29.98F HX  94
SILOAM SPGS    CLOUDY    90  64  43 S9        29.97F HX  91
HIGHFILL       PTSUNNY   91  68  46 SW8       29.98F HX  95
SPRINGDALE     MOSUNNY   91  63  38 SW10      30.00F HX  92
$$

ARZ004-005-016-032200-
NORTH CENTRAL ARKANSAS

CITY           SKY/WX    TMP DP  RH WIND       PRES   REMARKS
BATESVILLE     MOSUNNY   95  66  38 CALM      29.92S HX  98
FLIPPIN        PTSUNNY   95  64  36 NE3       29.93F HX  97
MTN HOME       MOSUNNY   91  67  44 CALM      29.94F HX  94
$$

ARZ040-041-032200-
WEST CENTRAL ARKANSAS

CITY           SKY/WX    TMP DP  RH WIND       PRES   REMARKS
MENA           PTSUNNY   97  61  30 E7        29.95F HX  97
MOUNT IDA      CLOUDY    95  60  31 VRB5      29.92F HX  95
$$

ARZ009-017-025-026-028-032200-
NORTHEAST ARKANSAS

CITY           SKY/WX    TMP DP  RH WIND       PRES   REMARKS
JONESBORO      SUNNY     94  64  37 VRB7      29.91S HX  95
NEWPORT        MOSUNNY   98  65  33 SW9       29.92F HX 101
WALNUT RIDGE   SUNNY     95  64  36 W8        29.90S HX  97
BLYTHEVILLE    SUNNY     93  73  52 NW5       29.91S HX 102
$$

ARZ022-023-033-042-044-032200-
CENTRAL ARKANSAS

CITY           SKY/WX    TMP DP  RH WIND       PRES   REMARKS
LITTLE ROCK    CLOUDY    96  63  33 SE7       29.92F HX  97
N LITTLE ROCK  PTSUNNY   96  65  36 S9        29.92F HX  98
JACKSONVILLE   PTSUNNY   96  67  38 SE8       29.91F HX  99
SEARCY         MOSUNNY   97  71  42 S7        29.92F HX 104
HOT SPRINGS    CLOUDY    95  61  32 S7        29.93F HX  95
RUSSELLVILLE   CLOUDY    95  61  32 S3        29.92F HX  95
$$

ARZ036-032200-
EAST ARKANSAS

CITY           SKY/WX    TMP DP  RH WIND       PRES   REMARKS
WEST MEMPHIS   MOSUNNY   94  69  44 NW5       29.90F HX  99
$$

ARZ050-053-066-070-073-032200-
SOUTHWEST ARKANSAS

CITY           SKY/WX    TMP DP  RH WIND       PRES   REMARKS
ARKADELPHIA    FAIR      98  62  30 S6        29.92F HX  99
CAMDEN         MOSUNNY   99  59  26 NE3       29.91F HX  98
TEXARKANA      SUNNY     98  61  29 MISG      29.91F HX  98
EL DORADO      SUNNY     99  60  27 N8        29.91F HX  99
DE QUEEN       SUNNY     97  64  33 E10       29.89F HX  99
$$

ARZ056-057-069-032200-
SOUTHEAST ARKANSAS

CITY           SKY/WX    TMP DP  RH WIND       PRES   REMARKS
PINE BLUFF     CLOUDY    94  65  38 E6        29.92F HX  96
STUTTGART      PTSUNNY   97  64  34 W3        29.93F HX  99
MONTICELLO     PTSUNNY   96  66  37 NE9       29.92F HX  99

$$





USA.gov is the U.S. government's official web portal to all federal, state and local government web resources and services.